Terug naar catalogus

METEOR 2-8 DEB

LostPO
NORAD 36329·DEBRIS·🇷🇺 Russia

Gelanceerd Mar 25, 1982 vanaf Plesetsk Cosmodrome

Loading…

Volgende Passages (komende 24 uur)

TLE

VerouderdSource: Space-Track

Epoch: May 8, 2024, 13:17 UTC

1 36329U 82025P   24129.55415988  .00011470  00000-0  46484-2 0  9994
2 36329  82.5049  75.7690 0016505  77.6665 282.6366 14.27546713514666

Volg METEOR 2-8 DEB in realtime met AllMySat

Download on the App Store